Temp
81 94 97 94 80 81 79 84 90 87 88 93 94 92 91 95 89 82 94 98 99 96 92 88 80 80 80 80 80 80 79 79 79 79 79 79 79 80 79 79 80 81 81 81 81 81 81 81 80
92 91 94 91 76 74 79 89 82 91 92 94 95 94 92 88 94 91 93 95 98 95 92 92 79 80 80 80 79 79 79 79 79 79 79 79 79 79 79 79 80 81 81 81 81 81 81 81 80
89 91 88 81 77 73 79 87 87 93 92 92 92 95 92 88 91 95 97 97 98 95 95 90 80 79 79 79 79 79 79 79 79 79 79 79 79 79 79 79 80 81 81 81 81 81 81 80 80
90 89 88 75 75 82 84 88 86 88 91 93 92 89 95 93 92 95 97 98 97 98 97 83 79 79 79 79 79 79 79 79 79 79 79 79 79 79 79 79 80 81 81 81 81 80 80 80 80
90 89 76 73 77 84 87 91 90 87 88 90 91 88 91 92 93 95 96 97 97 98 98 90 79 79 79 79 79 79 79 79 79 79 79 79 79 79 79 79 80 80 81 81 80 80 80 80 80
81 84 73 71 77 84 88 89 88 87 91 91 89 90 91 94 92 95 97 97 100 98 95 91 80 79 79 79 79 78 78 78 79 79 79 78 78 78 79 79 79 80 80 80 80 79 79 79 79
77 77 73 77 79 81 82 88 85 86 88 89 94 86 92 92 93 95 97 98 99 99 96 91 91 85 79 78 78 78 78 78 78 78 78 78 78 78 78 79 79 79 79 79 79 79 79 79 79
82 79 73 77 76 76 84 84 88 87 86 97 95 86 89 91 93 95 98 98 99 98 98 95 92 93 90 88 78 78 78 78 78 78 77 77 78 78 78 77 78 79 79 79 79 79 78 78 78
84 71 70 75 74 78 85 81 88 90 88 89 94 92 92 91 91 92 94 96 97 97 98 98 97 95 94 93 86 79 78 78 78 79 78 78 90 87 84 84 78 79 79 79 79 78 78 78 77
74 70 74 83 84 80 84 83 84 83 84 86 89 93 90 90 88 84 88 91 93 95 97 99 97 95 96 96 89 90 89 90 89 89 86 91 92 91 92 86 78 78 78 79 78 78 78 78 94
74 71 80 80 82 84 82 82 86 82 81 87 86 92 90 88 87 86 88 93 94 96 96 98 94 93 95 96 93 93 93 92 91 89 87 90 92 91 92 91 89 88 80 91 85 86 90 93 94
69 77 79 82 81 79 79 84 82 82 85 89 89 92 91 88 85 86 88 91 93 94 94 95 94 91 91 96 94 94 94 93 92 91 88 89 90 89 90 93 93 90 93 91 92 94 92 90 90
71 76 76 80 80 80 82 79 80 82 86 89 89 89 90 90 90 89 88 92 92 92 93 94 93 89 89 90 93 93 93 93 93 92 89 91 90 88 91 91 93 93 94 94 93 93 91 90 90
75 73 76 77 78 79 76 77 78 81 86 85 87 87 91 91 92 92 88 88 89 91 91 93 92 89 89 88 89 90 90 93 93 92 90 87 90 88 90 90 90 91 93 94 94 92 91 90 92
73 67 72 75 76 75 78 70 73 82 84 82 84 87 89 93 95 93 91 88 89 90 89 89 89 87 86 85 87 89 91 93 91 91 88 87 87 88 87 90 90 91 91 90 89 89 88 88 91
67 68 64 73 74 76 73 66 79 83 81 80 83 86 88 91 94 95 94 91 90 90 87 87 89 88 86 86 87 89 91 91 91 91 91 88 87 87 86 89 89 91 89 88 88 88 89 89 90
64 59 61 68 74 74 71 68 80 83 82 80 83 85 87 90 92 93 94 93 91 89 88 87 87 87 86 86 88 87 85 85 88 89 90 88 88 87 85 88 87 85 83 84 87 87 86 83 83
59 59 66 64 70 73 70 71 77 81 81 80 82 85 87 89 91 92 91 93 92 88 87 88 88 86 84 83 82 88 87 86 88 90 91 87 87 86 86 88 86 85 86 87 87 83 86 84 83
68 65 62 66 73 69 70 71 77 80 80 80 82 84 84 87 93 94 91 90 89 86 85 85 85 84 85 82 83 85 85 87 88 88 87 86 87 86 85 87 84 81 80 81 81 82 81 83 86
65 63 61 67 71 70 69 69 75 79 80 81 82 84 85 87 89 89 87 87 86 85 84 84 84 83 83 85 85 87 87 89 89 89 85 86 85 84 84 83 84 84 84 82 81 80 79 81 82
60 61 61 63 66 70 69 66 69 76 80 81 84 87 87 88 89 89 86 85 86 84 83 83 84 83 83 85 83 81 82 82 82 84 85 84 83 83 81 80 80 80 80 82 80 78 76 74 78
54 66 65 63 60 56 68 57 66 73 74 77 81 84 86 87 89 91 90 87 86 86 86 84 83 82 82 81 82 80 83 83 83 85 84 85 82 82 82 79 78 76 79 77 77 77 75 74 75
58 66 64 64 61 62 61 60 68 72 70 74 79 83 86 86 88 89 89 90 89 86 84 83 82 82 81 81 82 81 79 81 82 81 78 77 77 78 79 78 76 75 75 74 72 70 71 73 74
66 62 62 64 62 49 59 60 65 67 71 75 80 80 80 82 83 84 86 85 84 85 84 82 80 79 80 81 79 79 78 79 81 79 78 77 79 78 75 76 75 74 74 74 73 73 70 66 66
59 54 46 44 47 49 64 59 67 69 72 78 75 74 74 78 82 82 82 82 80 81 81 79 75 74 78 78 78 78 76 74 73 77 77 77 77 76 71 72 71 74 72 73 73 72 72 73 72
55 57 52 41 45 52 64 54 64 68 67 70 70 66 68 75 78 75 74 73 75 77 77 77 76 76 76 75 74 75 76 77 75 73 75 74 74 72 70 70 71 70 71 70 69 75 73 71 72
55 52 68 58 60 56 57 60 63 64 57 59 60 59 57 60 65 74 76 77 77 76 75 76 75 74 74 73 73 72 73 71 70 70 71 71 71 73 69 69 68 68 67 66 65 64 66 66 69
59 66 53 59 46 45 52 55 59 60 52 54 53 54 57 60 62 64 66 68 71 72 73 74 75 74 74 74 74 73 71 71 70 70 67 67 68 69 69 69 68 68 68 67 66 69 70 66 69
57 56 59 62 59 50 46 55 69 65 56 53 53 56 61 63 64 65 68 71 74 75 75 73 74 73 73 72 71 71 71 70 70 69 69 68 68 69 69 69 69 68 68 67 66 66 68 66 66
64 58 60 52 50 58 56 50 68 64 56 53 53 57 61 63 64 66 68 69 69 71 73 72 72 72 72 71 70 70 70 69 67 67 67 68 67 69 69 68 69 68 68 67 66 66 67 66 65
MSLP
1010.95 1009.84 1009.38 1008.15 1006.52 1004.03 1001.44 1000.26 1000.72 1000.39 1000.46 1000.87 1000.98 1000.89 1000.60 1000.44 1000.80 1002.18 1004.25 1004.80 1005.14 1006.26 1007.50 1008.51 1009.10 1009.42 1009.69 1010.06 1010.35 1010.68 1011.12 1011.61 1012.10 1012.52 1012.90 1013.27 1013.52 1013.62 1013.98 1014.21 1014.38 1014.56 1014.70 1014.98 1015.16 1015.19 1015.28 1015.42 1015.44
1009.83 1009.48 1008.59 1006.38 1004.77 1002.05 1000.39 1000.20 1000.81 1000.16 1000.84 1001.27 1001.02 1000.94 1000.76 1001.11 1002.31 1003.47 1004.16 1005.17 1005.48 1006.43 1007.44 1008.08 1009.21 1009.54 1010.02 1010.22 1010.55 1010.96 1011.39 1011.76 1012.12 1012.69 1013.12 1013.44 1013.69 1013.76 1014.03 1014.36 1014.52 1014.69 1014.84 1015.07 1015.31 1015.42 1015.50 1015.67 1015.73
1009.85 1009.34 1007.14 1005.35 1003.40 1001.26 999.96 1000.00 1000.86 1000.68 1001.58 1001.51 1001.13 1001.40 1001.62 1002.09 1003.25 1003.36 1004.16 1005.07 1005.64 1006.60 1007.10 1008.12 1009.15 1009.42 1009.95 1010.30 1010.61 1011.02 1011.46 1011.92 1012.35 1012.88 1013.23 1013.52 1013.80 1013.93 1014.08 1014.38 1014.58 1014.84 1014.98 1015.17 1015.35 1015.53 1015.64 1015.78 1015.88
1008.90 1008.33 1007.02 1004.43 1001.72 1001.35 1000.66 1000.25 1001.68 1001.52 1001.79 1001.83 1001.81 1001.38 1002.24 1003.56 1003.71 1004.17 1004.96 1005.22 1005.85 1006.32 1006.90 1008.60 1009.28 1009.65 1010.00 1010.46 1010.78 1011.19 1011.63 1011.98 1012.41 1012.92 1013.42 1013.56 1013.80 1014.06 1014.29 1014.64 1014.94 1015.04 1015.13 1015.28 1015.47 1015.69 1015.87 1016.05 1016.16
1008.63 1006.81 1005.02 1003.26 1001.77 1001.06 1001.32 1000.87 1001.33 1001.70 1001.52 1001.73 1002.00 1001.51 1002.10 1003.59 1004.52 1004.70 1005.25 1005.48 1005.67 1006.21 1006.91 1008.46 1009.35 1009.76 1010.28 1010.56 1010.78 1011.24 1011.81 1012.22 1012.58 1013.00 1013.36 1013.68 1013.92 1014.13 1014.41 1014.75 1015.10 1015.20 1015.28 1015.42 1015.61 1015.83 1015.96 1016.04 1016.20
1007.43 1006.14 1003.80 1001.91 1001.23 1000.86 1001.05 1001.84 1002.06 1002.14 1001.60 1001.66 1002.19 1001.84 1002.32 1004.00 1004.44 1004.80 1005.35 1005.55 1005.67 1006.32 1007.23 1008.34 1009.43 1009.78 1010.35 1010.86 1011.26 1011.52 1011.85 1012.20 1012.62 1012.96 1013.48 1013.79 1014.04 1014.31 1014.63 1014.92 1015.17 1015.28 1015.48 1015.64 1015.79 1015.94 1016.09 1016.19 1016.30
1006.50 1005.19 1003.00 1001.75 1000.70 1000.45 1001.46 1002.36 1002.32 1002.13 1001.82 1001.64 1002.01 1002.12 1002.40 1003.68 1004.57 1005.03 1005.40 1005.78 1006.01 1006.61 1007.42 1008.50 1009.24 1010.01 1010.48 1010.93 1011.42 1011.86 1012.16 1012.47 1012.74 1013.00 1013.35 1013.65 1014.00 1014.30 1014.62 1014.90 1015.08 1015.28 1015.51 1015.70 1015.89 1016.06 1016.17 1016.31 1016.42
1006.34 1004.98 1003.06 1001.66 1000.86 1000.82 1001.71 1002.39 1002.75 1002.33 1001.85 1001.98 1002.68 1001.84 1002.21 1003.79 1004.71 1005.20 1005.42 1005.76 1006.12 1006.72 1007.24 1008.18 1008.88 1009.70 1010.29 1010.83 1011.50 1011.82 1012.19 1012.64 1012.95 1013.14 1013.47 1013.85 1014.14 1014.36 1014.61 1014.88 1015.07 1015.25 1015.47 1015.68 1015.79 1015.92 1016.04 1016.12 1016.22
1006.68 1004.74 1002.04 1001.07 1001.39 1001.37 1001.95 1002.54 1002.52 1002.68 1002.39 1002.56 1002.17 1002.35 1003.11 1004.32 1004.96 1005.08 1005.26 1005.69 1005.95 1006.62 1007.10 1007.83 1008.47 1009.21 1009.77 1010.40 1011.48 1012.14 1012.32 1012.58 1012.99 1013.24 1013.56 1013.90 1013.55 1014.07 1014.46 1014.45 1014.82 1015.20 1015.38 1015.51 1015.66 1015.80 1015.88 1015.95 1015.92
1005.73 1003.61 1001.56 1001.34 1001.31 1001.93 1001.95 1002.41 1002.28 1002.62 1002.34 1002.20 1002.46 1002.93 1004.01 1004.49 1005.08 1005.33 1005.07 1005.08 1005.51 1006.21 1006.70 1007.30 1008.17 1008.82 1009.27 1009.94 1011.05 1011.55 1012.03 1012.35 1012.55 1012.85 1013.32 1013.18 1013.02 1013.42 1013.46 1013.96 1014.78 1015.02 1015.20 1015.32 1015.38 1015.47 1015.55 1015.58 1014.36
1004.65 1002.30 1001.83 1001.81 1002.48 1002.56 1002.22 1002.15 1002.41 1002.36 1001.78 1001.94 1002.31 1002.34 1003.55 1004.34 1004.80 1005.17 1005.37 1004.94 1005.22 1005.96 1006.59 1007.11 1008.16 1008.84 1009.03 1009.44 1010.49 1010.84 1011.28 1011.78 1012.26 1012.55 1013.04 1012.70 1012.86 1013.19 1013.37 1013.45 1014.12 1014.22 1014.61 1014.01 1014.42 1014.49 1014.31 1013.80 1013.86
1003.72 1002.77 1002.58 1002.18 1002.89 1002.99 1002.39 1002.28 1002.12 1002.46 1002.08 1002.15 1002.84 1002.85 1003.27 1003.92 1004.55 1004.55 1004.88 1004.97 1005.21 1005.69 1006.40 1007.15 1008.18 1009.04 1009.22 1009.23 1010.01 1010.23 1010.57 1011.08 1011.64 1012.06 1012.68 1012.56 1012.76 1012.93 1012.91 1012.80 1012.93 1013.35 1013.15 1013.25 1013.29 1012.95 1013.04 1013.21 1013.66
1003.34 1002.64 1003.14 1002.92 1002.82 1002.90 1002.76 1002.49 1002.28 1002.18 1002.70 1002.99 1003.17 1003.18 1003.19 1003.34 1003.54 1004.20 1004.44 1004.62 1005.16 1005.51 1006.16 1006.98 1007.88 1008.84 1009.40 1009.60 1009.88 1010.08 1010.40 1010.76 1011.00 1011.64 1012.32 1012.24 1012.26 1012.56 1012.57 1012.57 1012.66 1012.76 1012.83 1012.81 1012.98 1012.94 1012.96 1012.94 1012.82
1002.92 1003.52 1002.86 1002.97 1002.80 1002.80 1002.81 1002.62 1002.69 1002.44 1002.85 1002.96 1002.87 1002.80 1002.54 1002.70 1003.01 1003.37 1003.99 1004.26 1004.80 1005.42 1006.15 1006.86 1007.64 1008.58 1009.26 1009.72 1009.87 1010.16 1010.50 1010.55 1010.98 1011.20 1011.84 1012.66 1012.37 1012.37 1012.45 1012.75 1012.79 1012.65 1012.71 1012.66 1012.50 1012.58 1012.93 1012.96 1012.20
1003.22 1003.28 1002.86 1002.34 1002.52 1002.50 1002.95 1002.32 1001.46 1002.26 1002.60 1002.41 1002.26 1002.12 1002.10 1001.87 1002.08 1002.52 1003.25 1004.10 1004.94 1005.68 1006.30 1006.92 1007.82 1008.81 1009.37 1009.84 1009.97 1010.06 1010.16 1010.45 1010.84 1011.15 1011.68 1012.22 1012.37 1012.23 1012.66 1012.26 1012.42 1012.51 1012.70 1012.90 1012.86 1012.93 1012.88 1012.93 1012.48
1002.90 1002.74 1001.24 1001.24 1001.90 1002.16 1002.79 1000.20 1000.33 1001.29 1001.75 1001.60 1001.63 1001.61 1001.52 1001.31 1001.39 1001.92 1002.54 1003.55 1004.48 1005.41 1006.24 1007.10 1007.66 1008.26 1009.06 1009.45 1009.84 1009.95 1009.82 1010.20 1010.68 1011.09 1011.31 1012.00 1012.28 1012.32 1012.71 1011.92 1012.31 1012.43 1012.66 1012.65 1012.75 1012.69 1012.40 1012.22 1012.02
1001.60 1000.02 1000.36 1000.20 1001.32 1001.43 1001.74 1000.16 999.85 1000.26 1000.48 1000.67 1000.84 1001.01 1000.86 1000.93 1001.05 1001.58 1002.18 1002.85 1004.01 1005.16 1005.89 1006.60 1007.36 1007.92 1008.67 1009.20 1009.62 1010.13 1010.24 1010.68 1010.32 1011.02 1011.01 1011.48 1011.76 1012.18 1012.42 1011.94 1012.39 1012.93 1013.07 1012.93 1012.61 1012.40 1012.62 1012.39 1012.29
998.78 999.74 998.99 999.54 1000.52 1000.75 1000.54 999.68 999.44 999.45 999.79 1000.05 1000.06 1000.24 1000.23 1000.35 1000.58 1001.37 1002.15 1002.79 1003.77 1005.20 1005.90 1006.34 1006.96 1007.57 1008.46 1009.14 1009.78 1009.85 1010.19 1010.49 1010.41 1010.56 1010.65 1011.34 1011.66 1011.98 1012.00 1011.96 1012.22 1012.62 1012.46 1012.27 1012.31 1012.38 1012.28 1011.90 1011.92
998.70 998.77 999.18 999.62 999.61 1000.20 999.43 999.43 998.73 999.26 999.61 999.38 999.44 999.57 1000.00 1000.24 1000.43 1000.90 1002.01 1002.85 1003.81 1005.05 1005.72 1006.26 1006.82 1007.58 1008.25 1009.01 1009.30 1009.30 1009.56 1009.95 1010.21 1010.60 1010.87 1011.19 1011.39 1011.56 1011.86 1011.95 1012.17 1012.32 1012.29 1012.37 1012.43 1012.18 1011.88 1011.53 1011.30
999.22 998.60 998.99 999.44 999.72 999.85 999.20 998.87 998.91 998.88 998.86 999.06 998.90 998.99 999.41 999.83 1000.23 1001.17 1002.12 1002.87 1003.72 1004.51 1005.34 1005.99 1006.61 1007.40 1008.11 1008.41 1008.76 1008.91 1009.27 1009.62 1010.10 1010.44 1010.81 1010.99 1011.32 1011.77 1011.97 1012.12 1011.91 1011.93 1011.95 1012.01 1012.01 1011.96 1011.66 1011.34 1011.43
999.42 998.77 998.77 998.66 999.66 999.86 998.84 998.78 998.50 998.41 998.60 998.84 998.74 998.64 998.98 999.21 999.70 1000.54 1001.85 1002.88 1003.63 1004.26 1005.18 1005.83 1006.49 1007.30 1007.83 1008.13 1009.06 1009.79 1010.10 1010.47 1010.55 1010.54 1010.80 1011.26 1011.46 1011.62 1011.92 1012.08 1012.22 1012.23 1012.37 1011.85 1011.81 1011.86 1011.85 1011.46 1011.22
998.83 999.31 998.97 999.08 999.31 998.40 998.81 997.06 997.45 997.46 997.86 998.31 998.36 998.56 998.85 999.24 999.79 1000.33 1001.22 1002.42 1003.37 1004.05 1005.03 1005.89 1006.58 1007.30 1007.94 1008.60 1008.80 1009.24 1009.38 1009.50 1010.23 1010.45 1010.83 1011.24 1011.64 1011.73 1011.83 1012.13 1012.22 1012.40 1012.28 1012.26 1012.28 1012.12 1011.99 1011.73 1011.06
998.76 999.44 999.56 999.20 998.90 998.11 998.56 997.42 995.39 996.85 996.98 997.61 998.12 998.47 998.84 999.56 999.97 1000.37 1001.18 1001.95 1002.92 1004.32 1005.26 1006.21 1006.89 1007.42 1008.15 1008.61 1008.71 1009.21 1009.62 1010.08 1010.45 1010.92 1011.24 1011.88 1012.41 1012.47 1012.33 1012.35 1012.44 1012.64 1012.67 1012.63 1012.85 1012.54 1012.24 1011.91 1011.37
999.47 999.40 1000.02 999.49 998.86 998.50 997.37 996.96 995.25 996.21 996.50 997.40 998.26 999.34 1000.15 1000.49 1000.87 1001.48 1002.14 1003.07 1003.98 1004.78 1005.58 1006.50 1007.14 1007.74 1008.30 1008.62 1009.02 1009.24 1009.69 1010.06 1010.19 1010.94 1011.48 1012.04 1012.40 1012.69 1012.94 1012.85 1012.97 1012.95 1013.11 1013.04 1013.07 1012.76 1012.56 1012.59 1012.28
998.68 998.55 998.70 998.55 998.01 995.94 996.69 997.23 995.34 996.78 997.77 997.74 999.50 1001.07 1001.63 1001.61 1001.69 1002.14 1002.66 1003.50 1004.39 1005.21 1006.08 1007.06 1007.91 1008.22 1008.52 1008.96 1009.43 1009.75 1010.20 1010.80 1011.30 1011.46 1011.94 1012.00 1012.44 1012.78 1013.56 1013.48 1013.44 1013.40 1013.56 1013.35 1013.20 1012.88 1012.65 1012.20 1011.94
997.51 996.42 994.38 993.94 994.42 994.90 995.58 996.25 996.43 998.84 1000.48 1001.00 1002.04 1003.24 1003.38 1002.77 1003.01 1003.68 1004.40 1005.23 1005.71 1006.04 1006.68 1007.35 1008.00 1008.43 1009.11 1009.66 1010.33 1010.79 1011.04 1011.37 1011.98 1012.55 1012.54 1012.60 1012.90 1013.52 1014.01 1014.08 1014.13 1014.00 1013.76 1013.61 1013.49 1012.78 1012.69 1012.62 1012.13
996.70 995.91 994.15 993.91 994.44 994.42 996.01 997.32 999.07 1000.25 1002.36 1003.31 1004.00 1004.53 1005.08 1005.43 1005.27 1004.77 1005.00 1005.50 1006.14 1006.72 1007.40 1008.04 1008.71 1009.41 1009.98 1010.51 1011.08 1011.52 1011.96 1012.46 1012.83 1013.12 1013.18 1013.42 1013.80 1013.86 1014.37 1014.56 1014.49 1014.24 1014.10 1013.95 1013.61 1013.24 1013.09 1013.05 1012.44
996.10 995.50 994.41 993.35 992.76 993.29 995.59 996.59 997.12 1000.27 1002.91 1004.23 1005.15 1005.76 1006.12 1006.30 1006.37 1006.62 1006.91 1007.25 1007.53 1007.99 1008.56 1009.04 1009.63 1010.20 1010.76 1011.21 1011.65 1012.23 1012.80 1013.24 1013.38 1013.65 1013.95 1014.24 1014.54 1014.63 1014.66 1014.54 1014.26 1014.22 1014.09 1013.86 1013.74 1013.08 1012.81 1012.93 1012.38
995.44 994.78 994.78 993.43 992.78 993.20 994.83 996.48 997.40 1000.03 1003.20 1004.69 1005.96 1006.40 1006.48 1006.59 1006.94 1007.31 1007.49 1007.87 1008.19 1008.69 1009.38 1009.99 1010.53 1011.00 1011.53 1012.14 1012.65 1013.10 1013.40 1013.72 1013.83 1014.06 1014.50 1014.80 1014.94 1014.82 1014.60 1014.46 1014.47 1014.33 1014.09 1013.90 1013.78 1013.33 1012.77 1012.70 1012.41
994.86 994.68 994.09 993.46 993.41 993.58 994.88 998.22 999.66 1001.76 1004.28 1005.67 1006.58 1006.90 1007.22 1007.60 1008.04 1008.36 1008.70 1009.04 1009.38 1009.67 1010.26 1010.86 1011.46 1011.87 1012.46 1013.04 1013.32 1013.65 1013.89 1014.20 1014.45 1014.81 1015.06 1015.10 1015.06 1014.88 1014.72 1014.68 1014.53 1014.28 1014.02 1013.93 1013.54 1013.06 1012.86 1012.48 1012.22
Wind_Speed
13 8 6 7 9 8 16 14 10 7 7 4 4 5 8 10 6 6 3 10 18 20 19 19 16 16 16 16 18 19 18 18 17 16 15 15 15 15 13 12 12 12 12 12 11 12 12 12 12
4 6 7 6 11 15 14 16 11 8 8 6 4 6 4 6 4 9 11 12 20 19 19 20 16 17 16 17 18 18 17 17 17 16 15 14 14 14 14 12 11 12 12 12 11 11 11 11 11
6 8 8 8 15 19 16 7 9 10 4 4 3 2 3 5 5 4 9 17 20 19 19 18 17 18 18 18 19 19 18 18 17 16 15 15 13 13 13 11 11 11 12 11 11 10 11 11 10
6 7 6 13 19 20 23 3 2 7 7 2 3 5 4 7 2 3 14 19 20 20 19 20 16 17 18 17 18 18 18 18 17 16 15 15 14 12 11 10 9 10 11 10 9 8 8 8 7
7 5 13 18 24 21 16 21 10 10 5 5 2 3 5 4 3 6 14 18 19 19 18 20 17 17 16 18 19 19 18 17 17 16 15 14 13 13 11 10 9 9 9 9 8 7 6 6 5
8 7 12 20 20 21 16 12 14 17 15 7 9 8 2 5 3 9 14 18 18 19 19 19 17 17 16 16 16 17 18 18 17 17 15 14 13 12 11 10 9 8 8 7 6 5 4 4 3
16 12 18 21 18 19 14 11 17 17 15 16 8 13 3 5 6 8 13 15 17 18 18 17 18 16 15 15 15 15 16 16 17 17 16 16 14 12 11 10 10 8 8 7 6 5 4 3 4
12 11 22 21 16 20 6 10 13 16 18 9 8 9 11 9 7 10 13 14 16 17 18 18 18 18 16 16 15 16 16 15 15 16 16 14 13 12 12 10 9 8 7 7 6 6 5 5 5
16 12 18 23 19 15 7 13 10 5 11 10 10 5 10 4 8 12 15 15 16 15 17 18 18 17 16 16 14 13 15 15 14 14 13 12 11 12 13 7 13 9 8 7 6 6 5 5 9
17 17 23 16 13 13 11 12 10 8 12 13 12 8 4 9 10 12 15 17 18 19 18 17 17 17 16 13 15 14 13 12 12 13 14 11 10 10 10 10 10 10 8 7 7 7 7 9 8
17 24 18 11 12 15 15 12 8 10 14 12 13 12 6 5 9 13 15 15 19 18 14 16 15 15 15 12 11 8 8 8 8 12 12 10 8 8 8 7 8 9 12 9 12 11 9 9 6
17 24 20 15 14 17 16 13 15 13 13 2 7 8 6 9 10 12 16 17 17 17 17 16 16 14 13 9 10 10 9 9 8 10 13 8 7 8 8 6 8 8 7 9 9 7 8 9 10
27 17 14 18 15 15 13 14 16 13 10 8 8 11 13 10 10 12 13 15 17 19 18 17 16 14 13 11 10 9 9 9 10 10 12 9 9 8 8 7 6 6 7 8 9 9 8 10 11
11 23 18 16 20 17 17 15 16 13 10 17 17 16 17 15 14 11 14 17 17 16 16 17 17 15 13 12 11 9 8 9 8 9 9 11 8 7 8 7 7 7 7 7 8 8 9 10 10
18 13 19 22 17 13 16 22 26 18 15 15 15 14 16 16 14 15 15 16 15 13 14 14 14 14 15 14 12 10 9 9 8 8 10 13 12 9 9 7 6 6 7 8 8 8 9 10 10
22 20 20 20 23 21 12 17 21 23 21 21 20 16 16 17 15 15 14 16 17 15 15 15 14 15 15 13 10 9 8 8 7 7 8 12 10 9 10 5 6 7 6 6 8 8 9 8 9
18 19 25 18 18 15 24 15 19 15 20 22 19 17 17 16 15 12 13 16 16 15 15 16 15 15 15 13 9 8 4 5 4 6 7 9 9 11 8 5 4 7 6 6 8 7 9 8 8
24 23 18 24 20 21 21 20 7 11 19 17 16 16 16 15 15 13 12 13 15 15 14 13 12 12 12 8 7 8 7 7 7 7 6 5 7 8 6 7 7 8 8 8 9 9 9 9 9
18 21 24 14 15 24 25 21 17 12 12 16 18 15 12 14 14 10 11 13 16 15 14 13 12 12 10 9 10 8 8 7 6 5 5 5 5 4 5 7 8 7 8 9 10 10 11 10 11
25 15 18 14 12 19 20 21 21 19 16 13 14 15 14 15 12 10 10 14 15 16 16 14 13 12 11 8 7 5 5 4 4 4 4 3 4 4 5 6 7 8 9 10 11 12 11 11 9
26 19 16 19 15 16 12 18 20 18 18 17 16 15 14 14 14 13 13 12 13 15 15 13 13 13 11 8 6 5 5 3 5 5 5 4 5 6 6 6 6 6 7 9 9 9 12 11 10
26 22 13 17 19 13 17 10 22 19 18 18 18 15 14 14 10 9 9 14 12 10 10 12 12 12 10 10 8 7 5 4 2 1 4 1 3 3 3 4 5 6 7 6 7 7 8 8 10
21 21 15 14 14 7 16 10 16 21 20 19 19 19 14 9 9 8 5 7 11 11 11 11 12 11 11 9 7 8 5 4 5 4 5 5 5 5 5 5 5 5 5 7 7 8 6 8 9
21 25 19 14 11 11 15 17 17 15 20 19 20 10 8 8 7 6 7 10 12 12 12 12 12 11 9 8 7 6 7 5 5 4 5 4 3 5 7 6 6 6 6 6 6 6 6 5 6
27 26 16 14 12 14 21 14 5 12 2 16 13 12 8 7 9 12 13 12 11 12 13 13 13 12 10 10 8 8 8 9 8 6 5 5 5 6 8 7 8 6 6 6 7 5 6 5 6
32 31 19 32 21 17 18 11 13 14 7 7 11 9 9 7 10 12 12 13 13 13 13 14 14 15 14 14 14 12 11 9 8 8 6 6 6 7 6 7 6 7 7 7 8 7 7 7 6
32 28 23 17 17 16 11 7 8 16 12 12 13 13 13 12 11 14 16 15 15 15 16 16 17 17 16 15 13 13 12 11 10 9 8 7 7 6 7 6 6 6 6 6 7 3 6 8 8
23 28 21 12 23 18 15 17 11 17 15 14 14 14 15 16 17 17 16 17 16 17 17 18 17 16 15 14 12 12 12 11 10 10 10 9 7 6 6 6 7 6 6 7 7 5 5 7 7
20 21 18 13 11 11 12 13 9 20 18 18 16 17 18 20 19 18 18 18 19 18 18 17 16 16 14 13 12 11 11 10 10 9 8 7 6 6 7 7 7 7 7 7 7 7 8 8 8
22 29 23 14 14 10 10 9 5 20 16 17 18 18 20 20 19 19 18 18 17 17 17 16 15 14 13 12 11 11 10 10 9 8 7 6 6 6 7 7 7 7 7 7 8 9 8 9 9
Wind_Direction
262 252 249 235 239 228 246 230 251 227 194 79 346 288 327 321 354 18 122 150 140 145 149 156 143 140 143 144 142 140 141 141 143 147 149 150 149 140 135 136 135 132 132 133 136 138 140 142 142
273 233 221 244 243 234 230 231 207 210 63 312 287 277 192 85 49 104 131 157 154 146 151 155 148 140 142 139 136 137 138 140 142 145 147 145 144 139 137 139 138 140 137 139 141 142 141 146 146
236 239 235 226 230 238 240 166 226 226 184 282 301 348 29 66 82 127 100 158 150 154 155 147 153 145 145 144 140 139 138 137 138 142 145 145 145 140 140 142 141 146 143 146 146 146 147 151 149
192 192 242 241 230 222 242 151 239 218 223 209 352 256 149 56 15 42 148 157 156 158 154 141 151 145 145 145 140 138 139 139 140 142 146 145 144 138 132 133 139 149 147 151 151 150 150 154 157
212 240 235 229 240 240 223 255 175 215 183 239 305 259 319 86 34 157 159 164 164 158 154 156 153 148 151 151 147 144 143 141 141 144 148 145 141 136 135 138 144 150 151 151 152 155 160 164 175
206 253 231 231 230 232 221 235 238 237 246 250 272 265 54 87 120 154 167 173 165 158 151 153 155 152 153 151 150 148 148 147 148 147 148 144 140 136 136 138 146 147 145 146 153 160 172 180 197
238 215 239 245 242 230 218 241 237 241 240 243 223 271 76 132 102 159 169 174 169 161 162 159 164 158 153 150 151 152 153 153 153 151 149 147 145 143 143 147 152 149 146 147 151 164 183 205 231
225 245 246 238 238 240 190 227 236 234 243 260 248 237 231 110 142 152 174 178 174 170 165 166 166 168 168 161 161 161 158 157 157 152 151 151 151 153 156 155 161 159 158 162 166 176 190 208 228
230 232 234 234 219 240 213 222 204 236 242 209 194 285 25 128 157 160 172 178 181 180 170 173 170 171 175 167 165 162 159 158 159 159 159 156 180 178 164 172 144 172 177 181 187 195 208 226 231
209 226 235 241 224 233 203 227 178 207 210 216 221 172 124 144 165 177 185 179 185 184 178 176 179 172 179 170 161 176 169 175 178 180 173 189 182 187 189 159 168 185 190 197 198 205 217 224 242
216 238 231 240 222 237 243 219 210 230 237 202 215 204 161 172 185 186 199 200 185 183 184 181 184 177 186 177 168 180 174 176 186 186 181 201 182 182 203 183 192 206 199 210 192 195 217 229 257
243 223 248 229 223 238 239 242 235 222 234 247 219 262 244 199 192 219 202 195 190 188 187 186 181 183 197 182 182 180 186 184 191 193 190 188 198 182 205 213 208 211 210 225 229 220 221 210 227
220 242 226 235 235 229 241 234 238 217 223 243 243 249 234 233 217 205 215 205 192 192 188 189 181 184 191 199 188 196 203 192 195 191 196 200 205 196 200 208 228 231 231 231 243 242 230 221 225
211 231 234 233 232 231 236 227 233 233 251 249 249 242 240 224 228 220 204 203 199 191 189 189 189 184 189 201 196 194 203 193 207 191 198 217 220 201 213 214 226 238 246 256 251 247 252 244 237
253 243 229 229 219 225 235 245 239 240 236 235 216 220 235 233 217 220 209 204 193 189 193 191 186 189 198 202 199 203 193 207 206 213 200 211 215 206 238 221 233 243 255 261 262 267 251 263 260
215 223 232 212 219 220 207 249 214 217 221 222 232 240 233 233 216 211 199 197 190 191 189 187 189 189 197 202 201 211 201 199 210 213 209 214 218 236 220 229 248 257 257 265 274 256 262 262 265
198 217 220 213 200 202 211 238 234 196 215 224 223 225 228 222 209 206 205 192 190 185 184 185 189 194 197 198 204 206 184 230 203 225 222 206 215 220 240 248 264 263 260 258 263 269 264 270 280
205 215 221 214 176 217 202 233 160 218 201 212 209 213 218 219 214 194 206 204 173 184 183 181 183 189 189 181 198 200 193 203 211 212 219 186 213 219 234 244 256 255 256 255 253 256 258 260 266
215 209 225 204 182 212 217 217 214 170 190 217 222 217 217 217 217 185 183 187 169 190 178 181 182 178 177 180 194 199 204 201 205 219 205 206 211 226 247 257 255 270 275 266 268 273 264 263 263
231 229 209 185 179 208 207 217 231 226 223 216 215 204 200 202 198 166 163 174 182 183 185 178 180 174 188 184 197 199 201 193 218 185 163 175 180 212 250 274 282 287 290 283 278 273 274 267 264
219 221 200 202 189 217 191 217 228 229 228 221 217 210 190 190 188 175 162 175 183 183 178 173 173 171 178 162 144 146 127 156 191 185 189 192 232 248 279 285 281 284 276 281 284 274 271 276 271
206 204 192 202 182 195 205 212 204 216 204 212 210 203 197 194 204 209 179 169 175 173 165 158 162 161 153 168 165 176 199 194 103 136 69 96 20 325 315 300 324 318 302 301 295 292 294 283 274
215 186 197 174 200 183 188 246 181 204 204 201 203 199 188 175 187 201 189 145 150 134 146 147 157 161 151 169 170 167 176 155 147 148 117 75 88 59 47 16 10 342 327 348 334 325 318 304 286
202 182 198 197 205 212 204 222 166 190 207 196 192 166 165 176 167 154 135 122 125 134 136 139 144 141 149 153 152 165 152 160 139 97 133 112 99 91 45 48 33 28 359 9 332 333 2 348 337
207 163 175 187 192 219 198 197 357 123 191 168 160 158 150 163 148 145 134 107 111 119 124 118 117 118 119 119 117 115 112 99 114 116 92 105 87 64 52 35 30 21 14 2 352 350 329 340 317
198 182 182 179 190 180 182 206 155 103 94 112 92 113 117 108 106 110 112 120 125 120 111 111 113 110 105 100 99 97 103 102 100 74 80 65 65 56 42 33 21 11 5 10 357 333 334 339 326
187 201 201 192 189 160 165 127 123 121 121 131 126 110 105 111 108 113 111 107 104 103 104 106 105 103 101 99 97 92 88 83 86 83 75 70 44 50 38 23 13 9 2 2 348 7 310 314 305
196 198 207 227 177 170 174 177 150 159 145 134 122 118 119 113 106 106 104 103 99 99 102 101 99 97 97 95 92 89 90 90 87 77 66 59 48 32 18 9 6 352 346 352 338 325 321 306 306
196 196 207 220 190 177 163 168 121 149 148 138 129 125 120 110 107 105 107 107 105 103 101 100 98 96 92 90 91 91 90 84 77 72 62 51 36 14 8 1 340 335 334 338 318 313 295 308 306
207 201 204 207 184 203 160 102 287 111 133 129 125 119 111 108 107 104 103 101 98 96 96 94 92 91 90 93 90 84 80 75 70 61 49 29 13 3 355 339 328 326 330 324 318 317 321 314 310